Dewpoint
31 31 31 31 31 31 29 28 27 27 27 27 27 24 24 24 26 26 26 26 26 27 27 28 28 28 28 28 27 27 26 26 26 26 26 26 26 25 24 23 24 24
30 30 30 30 29 28 27 26 26 26 25 25 24 24 24 24 25 25 25 26 26 25 26 26 26 27 27 27 26 26 26 25 25 25 25 25 24 23 23 23 23 22
30 29 29 28 27 26 25 25 25 24 23 23 23 24 26 25 23 23 23 24 24 25 25 25 25 25 25 25 24 24 24 24 23 24 24 23 23 22 22 22 21 21
29 29 28 27 26 24 24 23 22 21 21 22 23 23 23 23 22 22 23 23 23 23 23 23 24 24 24 24 24 23 23 23 23 23 22 22 22 21 21 20 20 20
27 27 26 25 24 23 22 22 21 21 21 22 22 22 22 22 22 22 22 24 23 23 22 22 22 23 22 23 23 22 22 21 21 21 20 20 20 19 19 18 18 17
25 25 24 24 22 22 22 22 22 22 22 22 22 22 22 22 22 22 22 22 22 21 21 21 20 20 21 21 20 21 20 20 19 19 18 18 17 17 17 17 16 16
24 23 23 23 22 22 22 22 21 22 21 22 22 22 22 22 22 21 21 21 20 20 19 19 20 20 20 20 20 19 18 18 18 17 16 15 15 15 15 15 15 14
23 23 22 22 22 22 21 21 21 22 22 22 22 22 22 21 21 20 19 19 18 18 18 18 19 19 19 19 18 17 17 16 16 15 14 14 14 13 13 13 13 13
24 23 22 23 22 22 21 22 22 22 22 21 20 20 19 18 18 17 17 17 17 17 16 17 17 17 16 17 16 16 15 14 14 14 13 12 12 12 12 12 12 13
23 23 23 23 22 22 23 22 22 21 21 20 19 18 18 17 16 16 16 15 15 15 15 15 15 14 14 13 13 13 14 12 13 13 13 13 12 13 14 12 14 13
24 23 23 23 23 22 22 21 21 20 20 19 18 18 17 17 17 16 16 15 15 14 14 13 14 13 13 13 14 12 12 12 13 13 13 13 13 14 13 13 13 13
23 23 23 23 22 22 21 20 19 19 19 18 18 17 17 16 16 16 15 15 15 14 15 15 15 15 14 14 14 14 13 13 13 13 13 13 13 13 13 13 12 12
23 23 22 22 21 20 20 19 19 18 18 17 17 16 16 16 15 15 15 15 14 14 14 14 14 14 14 14 14 14 14 13 13 13 13 13 13 13 13 12 12 12
23 22 21 21 20 20 19 19 18 18 17 17 16 16 16 15 15 14 15 15 14 14 14 15 14 14 14 14 14 14 14 14 13 13 13 13 13 13 13 13 12 12
21 21 21 20 19 19 18 17 17 17 17 16 16 16 15 15 15 14 14 14 14 14 14 14 14 14 14 14 14 14 14 14 14 14 13 13 13 13 13 13 13 13
20 20 19 19 18 18 17 17 17 16 16 16 15 15 15 15 15 14 14 14 13 14 15 15 14 14 15 16 15 14 14 14 14 14 14 13 13 13 13 13 13 13
19 19 19 18 18 17 17 16 16 15 15 15 15 15 14 14 14 14 14 14 13 13 13 14 14 14 15 16 17 16 15 14 14 14 14 14 13 13 13 13 13 13
18 18 18 17 17 16 16 16 15 15 15 14 14 14 14 14 14 14 14 13 13 12 13 13 13 15 17 18 18 17 15 15 14 14 14 14 13 13 13 13 12 12
17 17 17 16 16 16 16 15 15 14 14 14 13 14 13 13 14 13 13 12 12 12 12 13 14 16 18 18 18 18 17 15 14 14 14 13 13 13 13 13 12 12
16 16 16 16 16 15 15 15 14 14 14 14 14 14 14 14 14 13 13 12 11 12 12 13 15 18 19 20 19 18 17 15 14 14 13 13 13 13 12 12 12 11
16 15 15 15 15 15 15 14 14 14 14 14 14 14 13 13 13 12 12 12 11 11 12 12 14 18 20 20 19 19 18 16 14 14 13 13 13 12 12 11 10 9
15 15 15 14 14 14 14 14 14 14 13 14 13 13 13 13 13 13 12 11 11 11 11 11 12 16 19 20 20 20 18 13 13 13 12 11 11 10 10 10 9 8
15 14 14 14 14 14 14 13 13 13 13 12 12 12 12 11 11 11 12 11 10 10 10 10 11 14 17 18 20 21 16 12 12 12 11 10 9 9 8 8 7 5
15 15 14 14 14 14 13 13 13 13 13 12 12 11 11 11 11 10 11 11 10 9 10 9 10 12 15 16 17 19 13 11 11 10 10 9 8 7 7 7 6 8
15 15 14 14 14 14 13 13 13 12 12 13 12 11 10 10 10 9 9 10 10 10 9 9 9 11 13 14 16 18 13 10 9 9 8 7 7 7 6 6 5 7
15 15 14 14 14 14 13 13 13 12 12 12 11 10 10 9 9 8 8 8 9 9 9 8 8 9 10 12 13 16 14 8 7 7 5 6 6 6 4 3 3 3